Tracking 22882 objects as of 18-Apr-2021
HD Live streaming from Space Station
objects crossing your sky now

COSMOS 1581

Track COSMOS 1581 now!
COSMOS 1581 is classified as:


NORAD ID: 15095
Int'l Code: 1984-071A
Perigee: 2,715.4 km
Apogee: 37,816.8 km
Inclination: 66.0 °
Period: 721.1 minutes
Semi major axis: 26637 km
RCS: 9.1322 m2 (large)
Launch date: July 3, 1984
Source: Commonwealth of Independent States (former USSR) (CIS)
Launch site: PLESETSK MISSILE AND SPACE COMPLEX (PKMTR)
aabbcc
Your satellite tracking list
Your tracking list is empty




NASA's NSSDC Master Catalog

Two Line Element Set (TLE):
1 15095U 84071A   21107.16582747 -.00000699  00000-0  00000-0 0  9996
2 15095  65.9551 193.3861 6588825  36.7508 354.0643  1.99697778242786
Source of the keplerian elements: AFSPC